Time,TemperatureF,DewpointF,PressureIn,WindDirection,WindDirectionDegrees,WindSpeedMPH,WindSpeedGustMPH,Humidity,HourlyPrecipIn,Conditions,Clouds,dailyrainin,SoftwareType,DateUTC
2013-06-17 00:01:00,79.5,77.0,29.98,South,176,7.0,9.0,92,0.00,,---,0.00,VWS V14.01,2013-06-17 04:01:00,
2013-06-17 00:06:00,79.5,77.0,29.98,South,177,8.0,8.0,92,0.00,,---,0.00,VWS V14.01,2013-06-17 04:06:00,
2013-06-17 00:11:00,79.4,76.9,29.98,South,177,6.0,8.0,92,0.00,,---,0.00,VWS V14.01,2013-06-17 04:11:00,
2013-06-17 00:16:00,79.5,77.0,29.98,South,177,8.0,9.0,92,0.00,,---,0.00,VWS V14.01,2013-06-17 04:16:00,
2013-06-17 00:21:00,79.5,77.0,29.98,South,177,6.0,9.0,92,0.00,,---,0.00,VWS V14.01,2013-06-17 04:21:00,
2013-06-17 00:26:00,79.4,76.9,29.98,South,177,6.0,7.0,92,0.00,,---,0.00,VWS V14.01,2013-06-17 04:26:00,
2013-06-17 00:31:00,79.4,76.9,29.98,South,177,5.0,7.0,92,0.00,,---,0.00,VWS V14.01,2013-06-17 04:31:00,
2013-06-17 00:36:00,79.4,76.9,29.98,South,177,6.0,7.0,92,0.00,,---,0.00,VWS V14.01,2013-06-17 04:36:00,
2013-06-17 00:41:00,79.3,76.8,29.98,South,176,6.0,6.0,92,0.00,,---,0.00,VWS V14.01,2013-06-17 04:41:00,
2013-06-17 00:46:00,79.3,76.8,29.98,South,177,9.0,11.0,92,0.00,,---,0.00,VWS V14.01,2013-06-17 04:46:00,
2013-06-17 00:51:00,79.3,76.8,29.98,South,177,11.0,11.0,92,0.00,,---,0.00,VWS V14.01,2013-06-17 04:51:00,
2013-06-17 00:56:00,79.3,76.8,29.98,South,177,10.0,10.0,92,0.00,,---,0.00,VWS V14.01,2013-06-17 04:56:00,
2013-06-17 01:01:00,79.3,77.1,29.98,South,176,11.0,11.0,93,0.00,,---,0.00,VWS V14.01,2013-06-17 05:01:00,
2013-06-17 01:06:00,79.4,77.2,29.98,South,177,9.0,10.0,93,0.00,,---,0.00,VWS V14.01,2013-06-17 05:06:00,
2013-06-17 01:11:00,79.4,77.2,29.98,South,177,8.0,8.0,93,0.00,,---,0.00,VWS V14.01,2013-06-17 05:11:00,
2013-06-17 01:16:00,79.4,77.2,29.99,South,177,0.0,0.0,93,0.00,,---,0.00,VWS V14.01,2013-06-17 05:16:00,
2013-06-17 01:21:00,79.4,77.2,29.99,South,177,0.0,0.0,93,0.00,,---,0.00,VWS V14.01,2013-06-17 05:21:00,
2013-06-17 01:26:00,79.3,77.1,29.99,South,177,9.0,9.0,93,0.00,,---,0.00,VWS V14.01,2013-06-17 05:26:00,
2013-06-17 01:31:00,79.4,77.2,29.97,South,177,4.0,8.0,93,0.00,,---,0.00,VWS V14.01,2013-06-17 05:31:00,
2013-06-17 01:36:00,79.4,77.2,29.97,South,177,0.0,0.0,93,0.00,,---,0.00,VWS V14.01,2013-06-17 05:36:00,
2013-06-17 01:41:00,79.4,77.2,29.97,South,177,0.0,0.0,93,0.00,,---,0.00,VWS V14.01,2013-06-17 05:41:00,
2013-06-17 01:47:00,79.4,77.2,29.97,South,177,0.0,0.0,93,0.00,,---,0.00,VWS V14.01,2013-06-17 05:47:00,
2013-06-17 01:52:00,79.3,77.1,29.97,South,177,0.0,0.0,93,0.00,,---,0.00,VWS V14.01,2013-06-17 05:52:00,
2013-06-17 01:57:00,79.2,77.0,29.97,South,177,0.0,0.0,93,0.00,,---,0.00,VWS V14.01,2013-06-17 05:57:00,
2013-06-17 02:02:00,79.2,77.0,29.97,South,177,0.0,0.0,93,0.00,,---,0.00,VWS V14.01,2013-06-17 06:02:00,
2013-06-17 02:07:00,79.2,77.0,29.97,South,177,0.0,0.0,93,0.00,,---,0.00,VWS V14.01,2013-06-17 06:07:00,
2013-06-17 02:12:00,79.2,77.0,29.97,South,177,0.0,0.0,93,0.00,,---,0.00,VWS V14.01,2013-06-17 06:12:00,
2013-06-17 02:17:00,79.2,77.0,29.96,South,177,0.0,0.0,93,0.00,,---,0.00,VWS V14.01,2013-06-17 06:17:00,
2013-06-17 02:22:00,79.2,77.0,29.96,South,177,0.0,0.0,93,0.00,,---,0.00,VWS V14.01,2013-06-17 06:22:00,
2013-06-17 02:27:00,79.2,77.0,29.96,South,177,0.0,0.0,93,0.00,,---,0.00,VWS V14.01,2013-06-17 06:27:00,
2013-06-17 02:32:00,79.2,77.0,29.96,South,177,0.0,0.0,93,0.00,,---,0.00,VWS V14.01,2013-06-17 06:32:00,
2013-06-17 02:37:00,79.2,77.0,29.96,South,176,0.0,0.0,93,0.00,,---,0.00,VWS V14.01,2013-06-17 06:37:00,
2013-06-17 02:42:00,79.2,77.0,29.96,South,177,0.0,0.0,93,0.00,,---,0.00,VWS V14.01,2013-06-17 06:42:00,
2013-06-17 02:47:00,79.1,76.9,29.95,South,177,0.0,0.0,93,0.00,,---,0.00,VWS V14.01,2013-06-17 06:47:00,
2013-06-17 02:52:00,79.1,76.9,29.95,South,177,4.0,11.0,93,0.00,,---,0.00,VWS V14.01,2013-06-17 06:52:00,
2013-06-17 02:57:00,79.0,76.8,29.95,South,177,6.0,11.0,93,0.00,,---,0.00,VWS V14.01,2013-06-17 06:57:00,
2013-06-17 03:02:00,78.9,76.7,29.94,South,176,7.0,8.0,93,0.00,,---,0.00,VWS V14.01,2013-06-17 07:02:00,
2013-06-17 03:07:00,78.8,76.6,29.94,South,177,7.0,9.0,93,0.00,,---,0.00,VWS V14.01,2013-06-17 07:07:00,
2013-06-17 03:12:00,78.8,76.6,29.94,South,177,9.0,11.0,93,0.00,,---,0.00,VWS V14.01,2013-06-17 07:12:00,
2013-06-17 03:17:00,78.9,76.4,29.93,South,176,9.0,11.0,92,0.00,,---,0.00,VWS V14.01,2013-06-17 07:17:00,
2013-06-17 03:22:00,79.1,76.6,29.93,South,177,9.0,11.0,92,0.00,,---,0.00,VWS V14.01,2013-06-17 07:22:00,
2013-06-17 03:27:00,79.2,76.7,29.93,South,177,9.0,10.0,92,0.00,,---,0.00,VWS V14.01,2013-06-17 07:27:00,
2013-06-17 03:32:00,79.2,76.3,29.92,South,177,9.0,10.0,91,0.00,,---,0.00,VWS V14.01,2013-06-17 07:32:00,
2013-06-17 03:37:00,79.1,76.2,29.92,South,177,9.0,10.0,91,0.00,,---,0.00,VWS V14.01,2013-06-17 07:37:00,
2013-06-17 03:42:00,79.1,76.2,29.92,South,177,6.0,9.0,91,0.00,,---,0.00,VWS V14.01,2013-06-17 07:42:00,
2013-06-17 03:47:00,79.0,76.2,29.92,South,177,6.0,10.0,91,0.00,,---,0.00,VWS V14.01,2013-06-17 07:47:00,
2013-06-17 03:52:00,79.1,76.2,29.92,South,177,7.0,13.0,91,0.00,,---,0.00,VWS V14.01,2013-06-17 07:52:00,
2013-06-17 03:57:00,79.2,76.3,29.92,South,177,7.0,10.0,91,0.00,,---,0.00,VWS V14.01,2013-06-17 07:57:00,
2013-06-17 04:02:00,79.3,76.1,29.93,South,177,8.0,8.0,90,0.00,,---,0.00,VWS V14.01,2013-06-17 08:02:00,
2013-06-17 04:07:00,79.3,76.1,29.93,South,177,0.0,10.0,90,0.00,,---,0.00,VWS V14.01,2013-06-17 08:07:00,
2013-06-17 04:12:00,79.3,76.1,29.93,South,177,0.0,0.0,90,0.00,,---,0.00,VWS V14.01,2013-06-17 08:12:00,
2013-06-17 04:17:00,79.4,76.2,29.93,South,176,0.0,8.0,90,0.00,,---,0.00,VWS V14.01,2013-06-17 08:17:00,
2013-06-17 04:22:00,79.5,76.3,29.93,South,177,10.0,10.0,90,0.00,,---,0.00,VWS V14.01,2013-06-17 08:22:00,
2013-06-17 04:27:00,79.6,76.4,29.93,South,177,0.0,0.0,90,0.00,,---,0.00,VWS V14.01,2013-06-17 08:27:00,
2013-06-17 04:32:00,79.6,76.4,29.94,South,176,0.0,6.0,90,0.00,,---,0.00,VWS V14.01,2013-06-17 08:32:00,
2013-06-17 04:37:00,79.6,76.1,29.94,South,177,0.0,0.0,89,0.00,,---,0.00,VWS V14.01,2013-06-17 08:37:00,
2013-06-17 04:42:00,79.6,76.1,29.94,South,177,0.0,0.0,89,0.00,,---,0.00,VWS V14.01,2013-06-17 08:42:00,
2013-06-17 04:47:00,79.5,76.0,29.94,South,177,6.0,6.0,89,0.00,,---,0.00,VWS V14.01,2013-06-17 08:47:00,
2013-06-17 04:52:00,79.5,76.0,29.94,South,177,0.0,0.0,89,0.00,,---,0.00,VWS V14.01,2013-06-17 08:52:00,
2013-06-17 04:57:00,79.4,75.9,29.94,South,177,0.0,0.0,89,0.00,,---,0.00,VWS V14.01,2013-06-17 08:57:00,
2013-06-17 05:02:00,79.3,75.8,29.95,South,177,0.0,1.0,89,0.00,,---,0.00,VWS V14.01,2013-06-17 09:02:00,
2013-06-17 05:07:00,79.3,75.8,29.95,South,177,0.0,1.0,89,0.00,,---,0.00,VWS V14.01,2013-06-17 09:07:00,
2013-06-17 05:12:00,79.2,75.7,29.95,South,177,0.0,0.0,89,0.00,,---,0.00,VWS V14.01,2013-06-17 09:12:00,
2013-06-17 05:17:00,79.2,75.7,29.95,South,176,1.0,5.0,89,0.00,,---,0.00,VWS V14.01,2013-06-17 09:17:00,
2013-06-17 05:22:00,79.3,75.8,29.95,South,176,6.0,6.0,89,0.00,,---,0.00,VWS V14.01,2013-06-17 09:22:00,
2013-06-17 05:27:00,79.3,75.8,29.95,South,177,8.0,8.0,89,0.00,,---,0.00,VWS V14.01,2013-06-17 09:27:00,
2013-06-17 05:32:00,79.2,75.7,29.94,South,176,0.0,0.0,89,0.00,,---,0.00,VWS V14.01,2013-06-17 09:32:00,
2013-06-17 05:37:00,79.2,75.7,29.94,South,177,0.0,0.0,89,0.00,,---,0.00,VWS V14.01,2013-06-17 09:37:00,
2013-06-17 05:42:00,79.1,75.6,29.94,South,177,0.0,0.0,89,0.00,,---,0.00,VWS V14.01,2013-06-17 09:42:00,
2013-06-17 05:47:00,79.0,75.8,29.94,South,176,4.0,7.0,90,0.00,,---,0.00,VWS V14.01,2013-06-17 09:47:00,
2013-06-17 05:52:00,79.0,75.8,29.94,South,177,0.0,0.0,90,0.00,,---,0.00,VWS V14.01,2013-06-17 09:52:00,
2013-06-17 05:57:00,78.9,75.7,29.94,South,177,0.0,0.0,90,0.00,,---,0.00,VWS V14.01,2013-06-17 09:57:00,
2013-06-17 06:02:00,78.9,75.7,29.94,South,177,0.0,0.0,90,0.00,,---,0.00,VWS V14.01,2013-06-17 10:02:00,
2013-06-17 06:07:00,78.9,75.7,29.94,South,176,0.0,0.0,90,0.00,,---,0.00,VWS V14.01,2013-06-17 10:07:00,
2013-06-17 06:12:00,78.9,75.7,29.94,South,177,0.0,0.0,90,0.00,,---,0.00,VWS V14.01,2013-06-17 10:12:00,
2013-06-17 06:17:00,79.0,75.8,29.94,South,177,0.0,0.0,90,0.00,,---,0.00,VWS V14.01,2013-06-17 10:17:00,
2013-06-17 06:22:00,79.0,75.8,29.94,South,177,0.0,0.0,90,0.00,,---,0.00,VWS V14.01,2013-06-17 10:22:00,
2013-06-17 06:27:00,79.1,75.9,29.94,South,177,0.0,0.0,90,0.00,,---,0.00,VWS V14.01,2013-06-17 10:27:00,
2013-06-17 06:32:00,79.1,75.9,29.94,South,177,0.0,0.0,90,0.00,,---,0.00,VWS V14.01,2013-06-17 10:32:00,
2013-06-17 06:37:00,79.0,75.8,29.94,South,177,0.0,0.0,90,0.00,,---,0.00,VWS V14.01,2013-06-17 10:37:00,
2013-06-17 06:42:00,78.9,75.7,29.94,South,177,0.0,1.0,90,0.00,,---,0.00,VWS V14.01,2013-06-17 10:42:00,
2013-06-17 06:47:00,78.9,75.7,29.94,South,176,1.0,2.0,90,0.00,,---,0.00,VWS V14.01,2013-06-17 10:47:00,
2013-06-17 06:52:00,78.9,75.7,29.94,South,177,0.0,1.0,90,0.00,,---,0.00,VWS V14.01,2013-06-17 10:52:00,
2013-06-17 06:57:00,78.9,75.7,29.94,South,177,0.0,0.0,90,0.00,,---,0.00,VWS V14.01,2013-06-17 10:57:00,
2013-06-17 07:02:00,78.9,75.7,29.94,South,177,0.0,2.0,90,0.00,,---,0.00,VWS V14.01,2013-06-17 11:02:00,
2013-06-17 07:07:00,79.0,75.8,29.94,South,177,0.0,0.0,90,0.00,,---,0.00,VWS V14.01,2013-06-17 11:07:00,
2013-06-17 07:12:00,79.1,75.9,29.94,South,176,4.0,5.0,90,0.00,,---,0.00,VWS V14.01,2013-06-17 11:12:00,
2013-06-17 07:17:00,79.1,75.9,29.94,South,177,0.0,2.0,90,0.00,,---,0.00,VWS V14.01,2013-06-17 11:17:00,
2013-06-17 07:22:00,79.3,76.1,29.94,South,176,0.0,1.0,90,0.00,,---,0.00,VWS V14.01,2013-06-17 11:22:00,
2013-06-17 07:27:00,79.4,76.2,29.94,South,177,0.0,0.0,90,0.00,,---,0.00,VWS V14.01,2013-06-17 11:27:00,
2013-06-17 07:32:00,79.6,76.4,29.94,South,177,1.0,4.0,90,0.00,,---,0.00,VWS V14.01,2013-06-17 11:32:00,
2013-06-17 07:37:00,79.7,76.5,29.94,South,177,0.0,1.0,90,0.00,,---,0.00,VWS V14.01,2013-06-17 11:37:00,
2013-06-17 07:42:00,79.9,76.4,29.94,South,177,0.0,0.0,89,0.00,,---,0.00,VWS V14.01,2013-06-17 11:42:00,
2013-06-17 07:47:00,79.9,76.4,29.94,South,177,0.0,2.0,89,0.00,,---,0.00,VWS V14.01,2013-06-17 11:47:00,
2013-06-17 07:52:00,80.2,76.7,29.94,South,177,0.0,0.0,89,0.00,,---,0.00,VWS V14.01,2013-06-17 11:52:00,
2013-06-17 07:57:00,80.2,76.3,29.94,South,177,0.0,0.0,88,0.00,,---,0.00,VWS V14.01,2013-06-17 11:57:00,
2013-06-17 08:02:00,80.6,77.1,29.95,South,177,0.0,0.0,89,0.00,,---,0.00,VWS V14.01,2013-06-17 12:02:00,
2013-06-17 08:07:00,80.6,77.1,29.95,South,177,0.0,0.0,89,0.00,,---,0.00,VWS V14.01,2013-06-17 12:07:00,
2013-06-17 08:12:00,80.6,76.7,29.95,South,177,0.0,0.0,88,0.00,,---,0.00,VWS V14.01,2013-06-17 12:12:00,
2013-06-17 08:17:00,80.8,77.3,29.96,South,177,0.0,0.0,89,0.00,,---,0.00,VWS V14.01,2013-06-17 12:17:00,
2013-06-17 08:22:00,80.8,76.6,29.96,South,177,0.0,0.0,87,0.00,,---,0.00,VWS V14.01,2013-06-17 12:22:00,
2013-06-17 08:27:00,81.1,76.9,29.96,South,177,0.0,0.0,87,0.00,,---,0.00,VWS V14.01,2013-06-17 12:27:00,
2013-06-17 08:32:00,81.3,76.7,29.96,South,177,0.0,0.0,86,0.00,,---,0.00,VWS V14.01,2013-06-17 12:32:00,
2013-06-17 08:37:00,81.4,76.5,29.96,South,177,0.0,0.0,85,0.00,,---,0.00,VWS V14.01,2013-06-17 12:37:00,
2013-06-17 08:42:00,81.8,76.8,29.96,South,176,1.0,1.0,85,0.00,,---,0.00,VWS V14.01,2013-06-17 12:42:00,
2013-06-17 08:47:00,82.0,76.7,29.96,South,177,0.0,0.0,84,0.00,,---,0.00,VWS V14.01,2013-06-17 12:47:00,
2013-06-17 08:52:00,82.2,76.9,29.96,South,177,0.0,0.0,84,0.00,,---,0.00,VWS V14.01,2013-06-17 12:52:00,
2013-06-17 08:57:00,82.4,76.7,29.96,South,177,0.0,0.0,83,0.00,,---,0.00,VWS V14.01,2013-06-17 12:57:00,
2013-06-17 09:02:00,82.7,77.0,29.96,South,177,0.0,0.0,83,0.00,,---,0.00,VWS V14.01,2013-06-17 13:02:00,
2013-06-17 09:07:00,82.9,76.8,29.96,South,177,0.0,0.0,82,0.00,,---,0.00,VWS V14.01,2013-06-17 13:07:00,
2013-06-17 09:12:00,83.1,77.0,29.96,South,177,0.0,0.0,82,0.00,,---,0.00,VWS V14.01,2013-06-17 13:12:00,
2013-06-17 09:17:00,82.9,76.8,29.97,South,177,0.0,0.0,82,0.00,,---,0.00,VWS V14.01,2013-06-17 13:17:00,
2013-06-17 09:22:00,82.7,77.0,29.97,South,176,0.0,0.0,83,0.00,,---,0.00,VWS V14.01,2013-06-17 13:22:00,
2013-06-17 09:27:00,82.4,76.7,29.97,South,177,0.0,0.0,83,0.00,,---,0.00,VWS V14.01,2013-06-17 13:27:00,
2013-06-17 09:32:00,82.2,76.5,29.97,South,177,0.0,0.0,83,0.00,,---,0.00,VWS V14.01,2013-06-17 13:32:00,
2013-06-17 09:37:00,82.6,77.3,29.97,South,176,0.0,0.0,84,0.00,,---,0.00,VWS V14.01,2013-06-17 13:37:00,
2013-06-17 09:42:00,83.3,78.0,29.97,South,177,0.0,0.0,84,0.00,,---,0.00,VWS V14.01,2013-06-17 13:42:00,
2013-06-17 09:47:00,83.6,77.9,29.97,South,176,0.0,0.0,83,0.00,,---,0.00,VWS V14.01,2013-06-17 13:47:00,
2013-06-17 09:52:00,83.8,77.7,29.97,South,176,0.0,0.0,82,0.00,,---,0.00,VWS V14.01,2013-06-17 13:52:00,
2013-06-17 09:57:00,84.2,78.1,29.97,South,177,0.0,1.0,82,0.00,,---,0.00,VWS V14.01,2013-06-17 13:57:00,
2013-06-17 10:02:00,84.7,78.6,29.97,South,176,0.0,0.0,82,0.00,,---,0.00,VWS V14.01,2013-06-17 14:02:00,
2013-06-17 10:07:00,85.3,78.8,29.97,South,176,0.0,0.0,81,0.00,,---,0.00,VWS V14.01,2013-06-17 14:07:00,
2013-06-17 10:12:00,85.5,78.2,29.97,South,176,0.0,0.0,79,0.00,,---,0.00,VWS V14.01,2013-06-17 14:12:00,
2013-06-17 10:17:00,85.2,77.9,29.97,South,176,0.0,0.0,79,0.00,,---,0.00,VWS V14.01,2013-06-17 14:17:00,
2013-06-17 10:22:00,85.0,78.1,29.97,South,176,0.0,0.0,80,0.00,,---,0.00,VWS V14.01,2013-06-17 14:22:00,
2013-06-17 10:27:00,84.8,77.9,29.97,South,177,0.0,0.0,80,0.00,,---,0.00,VWS V14.01,2013-06-17 14:27:00,
2013-06-17 10:32:00,84.6,78.1,29.97,South,176,0.0,0.0,81,0.00,,---,0.00,VWS V14.01,2013-06-17 14:32:00,
2013-06-17 10:37:00,84.2,77.7,29.97,South,176,0.0,7.0,81,0.00,,---,0.00,VWS V14.01,2013-06-17 14:37:00,
2013-06-17 10:42:00,83.6,77.2,29.97,South,177,0.0,0.0,81,0.00,,---,0.00,VWS V14.01,2013-06-17 14:42:00,
2013-06-17 10:47:00,83.2,77.1,29.97,South,177,0.0,1.0,82,0.00,,---,0.00,VWS V14.01,2013-06-17 14:47:00,
2013-06-17 10:52:00,83.4,77.7,29.97,South,176,0.0,0.0,83,0.00,,---,0.00,VWS V14.01,2013-06-17 14:52:00,
2013-06-17 10:57:00,83.9,77.8,29.97,South,176,0.0,2.0,82,0.00,,---,0.00,VWS V14.01,2013-06-17 14:57:00,
2013-06-17 11:02:00,83.7,76.9,29.97,South,176,0.0,0.0,80,0.00,,---,0.00,VWS V14.01,2013-06-17 15:02:00,
2013-06-17 11:07:00,84.0,77.5,29.97,South,176,0.0,0.0,81,0.00,,---,0.00,VWS V14.01,2013-06-17 15:07:00,
2013-06-17 11:12:00,84.6,77.8,29.97,South,177,0.0,0.0,80,0.00,,---,0.00,VWS V14.01,2013-06-17 15:12:00,
2013-06-17 11:17:00,84.6,77.8,29.97,South,177,0.0,0.0,80,0.00,,---,0.00,VWS V14.01,2013-06-17 15:17:00,
2013-06-17 11:22:00,84.5,78.0,29.97,South,177,0.0,0.0,81,0.00,,---,0.00,VWS V14.01,2013-06-17 15:22:00,
2013-06-17 11:27:00,84.8,78.3,29.97,South,177,0.0,0.0,81,0.00,,---,0.00,VWS V14.01,2013-06-17 15:27:00,
2013-06-17 11:32:00,85.1,78.2,29.97,South,176,0.0,0.0,80,0.00,,---,0.00,VWS V14.01,2013-06-17 15:32:00,
2013-06-17 11:37:00,85.0,78.1,29.97,South,176,0.0,0.0,80,0.00,,---,0.00,VWS V14.01,2013-06-17 15:37:00,
2013-06-17 11:42:00,84.8,77.9,29.97,South,176,0.0,0.0,80,0.00,,---,0.00,VWS V14.01,2013-06-17 15:42:00,
2013-06-17 11:47:00,84.7,77.8,29.97,South,177,5.0,6.0,80,0.00,,---,0.00,VWS V14.01,2013-06-17 15:47:00,
2013-06-17 11:52:00,84.8,78.3,29.97,South,177,0.0,0.0,81,0.00,,---,0.00,VWS V14.01,2013-06-17 15:52:00,
2013-06-17 11:57:00,85.4,78.9,29.97,South,176,0.0,0.0,81,0.00,,---,0.00,VWS V14.01,2013-06-17 15:57:00,
2013-06-17 12:02:00,85.6,78.3,29.97,South,176,0.0,0.0,79,0.00,,---,0.00,VWS V14.01,2013-06-17 16:02:00,
2013-06-17 12:07:00,85.5,78.2,29.97,South,176,0.0,0.0,79,0.00,,---,0.00,VWS V14.01,2013-06-17 16:07:00,
2013-06-17 12:12:00,85.1,77.9,29.97,South,177,6.0,8.0,79,0.00,,---,0.00,VWS V14.01,2013-06-17 16:12:00,
2013-06-17 12:17:00,84.8,77.9,29.96,South,176,0.0,8.0,80,0.00,,---,0.00,VWS V14.01,2013-06-17 16:17:00,
2013-06-17 12:22:00,84.6,78.1,29.96,South,176,0.0,0.0,81,0.00,,---,0.00,VWS V14.01,2013-06-17 16:22:00,
2013-06-17 12:27:00,84.6,78.5,29.96,South,177,0.0,1.0,82,0.00,,---,0.00,VWS V14.01,2013-06-17 16:27:00,
2013-06-17 12:32:00,85.2,79.1,29.96,South,176,0.0,4.0,82,0.00,,---,0.00,VWS V14.01,2013-06-17 16:32:00,
2013-06-17 12:37:00,85.9,79.4,29.96,South,176,0.0,0.0,81,0.00,,---,0.00,VWS V14.01,2013-06-17 16:37:00,
2013-06-17 12:42:00,86.4,79.1,29.96,South,177,0.0,0.0,79,0.00,,---,0.00,VWS V14.01,2013-06-17 16:42:00,
2013-06-17 12:47:00,86.4,79.1,29.96,South,176,0.0,0.0,79,0.00,,---,0.00,VWS V14.01,2013-06-17 16:47:00,
2013-06-17 12:52:00,85.9,78.6,29.96,South,176,0.0,5.0,79,0.00,,---,0.00,VWS V14.01,2013-06-17 16:52:00,
2013-06-17 12:57:00,85.4,78.5,29.96,South,176,0.0,5.0,80,0.00,,---,0.00,VWS V14.01,2013-06-17 16:57:00,
2013-06-17 13:02:00,85.2,78.3,29.96,South,176,0.0,6.0,80,0.00,,---,0.00,VWS V14.01,2013-06-17 17:02:00,
2013-06-17 13:07:00,84.9,78.0,29.96,South,176,7.0,7.0,80,0.00,,---,0.00,VWS V14.01,2013-06-17 17:07:00,
2013-06-17 13:12:00,84.6,78.1,29.96,South,176,9.0,10.0,81,0.00,,---,0.00,VWS V14.01,2013-06-17 17:12:00,
2013-06-17 13:17:00,84.4,78.3,29.96,South,177,6.0,7.0,82,0.00,,---,0.00,VWS V14.01,2013-06-17 17:17:00,
2013-06-17 13:22:00,84.1,78.4,29.96,South,177,0.0,1.0,83,0.00,,---,0.00,VWS V14.01,2013-06-17 17:22:00,
2013-06-17 13:27:00,84.1,78.4,29.96,South,176,9.0,9.0,83,0.00,,---,0.00,VWS V14.01,2013-06-17 17:27:00,
2013-06-17 13:32:00,83.9,78.2,29.96,South,177,8.0,10.0,83,0.00,,---,0.00,VWS V14.01,2013-06-17 17:32:00,
2013-06-17 13:37:00,83.3,78.0,29.96,South,177,10.0,13.0,84,0.00,,---,0.00,VWS V14.01,2013-06-17 17:37:00,
2013-06-17 13:42:00,82.7,77.7,29.96,South,177,12.0,15.0,85,0.00,,---,0.00,VWS V14.01,2013-06-17 17:42:00,
2013-06-17 13:47:00,82.5,77.9,29.95,South,176,10.0,11.0,86,0.00,,---,0.00,VWS V14.01,2013-06-17 17:47:00,
2013-06-17 13:52:00,82.3,77.7,29.95,South,176,10.0,13.0,86,0.00,,---,0.00,VWS V14.01,2013-06-17 17:52:00,
2013-06-17 13:57:00,82.1,77.5,29.95,South,177,11.0,12.0,86,0.00,,---,0.00,VWS V14.01,2013-06-17 17:57:00,
2013-06-17 14:02:00,82.0,77.4,29.95,South,176,8.0,13.0,86,0.00,,---,0.00,VWS V14.01,2013-06-17 18:02:00,
2013-06-17 14:07:00,82.0,77.4,29.95,South,176,9.0,13.0,86,0.00,,---,0.00,VWS V14.01,2013-06-17 18:07:00,
2013-06-17 14:12:00,82.0,77.4,29.95,South,176,12.0,13.0,86,0.00,,---,0.00,VWS V14.01,2013-06-17 18:12:00,
2013-06-17 14:17:00,82.0,77.4,29.95,South,177,11.0,11.0,86,0.00,,---,0.00,VWS V14.01,2013-06-17 18:17:00,
2013-06-17 14:22:00,82.1,77.5,29.95,South,176,9.0,11.0,86,0.00,,---,0.00,VWS V14.01,2013-06-17 18:22:00,
2013-06-17 14:27:00,82.0,77.4,29.95,South,177,10.0,13.0,86,0.00,,---,0.00,VWS V14.01,2013-06-17 18:27:00,
2013-06-17 14:32:00,82.0,77.8,29.94,South,176,10.0,12.0,87,0.00,,---,0.00,VWS V14.01,2013-06-17 18:32:00,
2013-06-17 14:37:00,81.9,77.7,29.94,South,176,14.0,14.0,87,0.00,,---,0.00,VWS V14.01,2013-06-17 18:37:00,
2013-06-17 14:42:00,81.8,77.9,29.94,South,177,10.0,13.0,88,0.00,,---,0.00,VWS V14.01,2013-06-17 18:42:00,
2013-06-17 14:47:00,81.8,77.9,29.94,South,177,11.0,12.0,88,0.00,,---,0.00,VWS V14.01,2013-06-17 18:47:00,
2013-06-17 14:52:00,81.6,77.7,29.94,South,176,11.0,13.0,88,0.00,,---,0.00,VWS V14.01,2013-06-17 18:52:00,
2013-06-17 14:57:00,81.6,77.7,29.94,South,177,12.0,12.0,88,0.00,,---,0.00,VWS V14.01,2013-06-17 18:57:00,
2013-06-17 15:02:00,81.6,77.7,29.94,South,176,11.0,11.0,88,0.00,,---,0.00,VWS V14.01,2013-06-17 19:02:00,
2013-06-17 15:07:00,81.6,77.7,29.94,South,176,9.0,11.0,88,0.00,,---,0.00,VWS V14.01,2013-06-17 19:07:00,
2013-06-17 15:12:00,81.6,77.7,29.94,South,177,10.0,10.0,88,0.00,,---,0.00,VWS V14.01,2013-06-17 19:12:00,
2013-06-17 15:17:00,81.6,77.7,29.94,South,176,9.0,10.0,88,0.00,,---,0.00,VWS V14.01,2013-06-17 19:17:00,
2013-06-17 15:22:00,81.6,77.7,29.94,South,176,9.0,10.0,88,0.00,,---,0.00,VWS V14.01,2013-06-17 19:22:00,
2013-06-17 15:27:00,81.6,77.7,29.94,South,177,9.0,11.0,88,0.00,,---,0.00,VWS V14.01,2013-06-17 19:27:00,
2013-06-17 15:32:00,81.5,77.6,29.93,South,176,14.0,16.0,88,0.00,,---,0.00,VWS V14.01,2013-06-17 19:32:00,
2013-06-17 15:37:00,81.5,77.6,29.93,South,177,12.0,15.0,88,0.00,,---,0.00,VWS V14.01,2013-06-17 19:37:00,
2013-06-17 15:42:00,81.4,77.5,29.93,South,176,10.0,18.0,88,0.00,,---,0.00,VWS V14.01,2013-06-17 19:42:00,
2013-06-17 15:47:00,81.3,77.4,29.93,South,176,19.0,19.0,88,0.00,,---,0.00,VWS V14.01,2013-06-17 19:47:00,
2013-06-17 15:52:00,81.2,77.7,29.93,South,176,15.0,18.0,89,0.00,,---,0.00,VWS V14.01,2013-06-17 19:52:00,
2013-06-17 15:57:00,81.3,77.8,29.93,South,177,15.0,16.0,89,0.00,,---,0.00,VWS V14.01,2013-06-17 19:57:00,
2013-06-17 16:02:00,81.3,77.4,29.92,South,176,15.0,15.0,88,0.00,,---,0.00,VWS V14.01,2013-06-17 20:02:00,
2013-06-17 16:07:00,81.3,77.8,29.92,South,177,16.0,19.0,89,0.00,,---,0.00,VWS V14.01,2013-06-17 20:07:00,
2013-06-17 16:12:00,81.2,77.7,29.92,South,177,19.0,19.0,89,0.00,,---,0.00,VWS V14.01,2013-06-17 20:12:00,
2013-06-17 16:17:00,81.2,77.3,29.91,South,176,17.0,21.0,88,0.00,,---,0.00,VWS V14.01,2013-06-17 20:17:00,
2013-06-17 16:22:00,81.2,77.3,29.91,South,176,18.0,20.0,88,0.00,,---,0.00,VWS V14.01,2013-06-17 20:22:00,
2013-06-17 16:27:00,81.2,77.3,29.91,South,176,20.0,21.0,88,0.00,,---,0.00,VWS V14.01,2013-06-17 20:27:00,
2013-06-17 16:32:00,81.3,77.4,29.91,South,176,21.0,21.0,88,0.00,,---,0.00,VWS V14.01,2013-06-17 20:32:00,
2013-06-17 16:37:00,81.4,77.5,29.91,South,177,20.0,21.0,88,0.00,,---,0.00,VWS V14.01,2013-06-17 20:37:00,
2013-06-17 16:42:00,81.4,77.5,29.91,South,177,19.0,20.0,88,0.00,,---,0.00,VWS V14.01,2013-06-17 20:42:00,
2013-06-17 16:47:00,81.4,77.5,29.91,South,177,18.0,21.0,88,0.00,,---,0.00,VWS V14.01,2013-06-17 20:47:00,
2013-06-17 16:52:00,81.4,77.5,29.91,South,176,19.0,20.0,88,0.00,,---,0.00,VWS V14.01,2013-06-17 20:52:00,
2013-06-17 16:57:00,81.4,77.5,29.91,South,177,20.0,23.0,88,0.00,,---,0.00,VWS V14.01,2013-06-17 20:57:00,
2013-06-17 17:02:00,81.4,77.5,29.91,South,176,19.0,22.0,88,0.00,,---,0.00,VWS V14.01,2013-06-17 21:02:00,
2013-06-17 17:07:00,81.5,77.6,29.91,South,177,16.0,21.0,88,0.00,,---,0.00,VWS V14.01,2013-06-17 21:07:00,
2013-06-17 17:12:00,81.4,77.5,29.91,South,176,20.0,22.0,88,0.00,,---,0.00,VWS V14.01,2013-06-17 21:12:00,
2013-06-17 17:17:00,81.4,77.5,29.91,South,177,17.0,22.0,88,0.00,,---,0.00,VWS V14.01,2013-06-17 21:17:00,
2013-06-17 17:22:00,81.4,77.5,29.91,South,177,19.0,22.0,88,0.00,,---,0.00,VWS V14.01,2013-06-17 21:22:00,
2013-06-17 17:27:00,81.4,77.5,29.91,South,177,18.0,21.0,88,0.00,,---,0.00,VWS V14.01,2013-06-17 21:27:00,
2013-06-17 17:32:00,81.4,77.5,29.91,South,177,19.0,22.0,88,0.00,,---,0.00,VWS V14.01,2013-06-17 21:32:00,
2013-06-17 17:37:00,81.5,77.6,29.91,South,177,21.0,23.0,88,0.00,,---,0.00,VWS V14.01,2013-06-17 21:37:00,
2013-06-17 17:42:00,81.4,77.8,29.91,South,176,20.0,23.0,89,0.00,,---,0.00,VWS V14.01,2013-06-17 21:42:00,
2013-06-17 17:47:00,81.3,77.8,29.90,South,177,22.0,24.0,89,0.00,,---,0.00,VWS V14.01,2013-06-17 21:47:00,
2013-06-17 17:52:00,81.3,77.8,29.90,South,177,22.0,23.0,89,0.00,,---,0.00,VWS V14.01,2013-06-17 21:52:00,
2013-06-17 17:57:00,81.2,77.7,29.90,South,176,22.0,23.0,89,0.00,,---,0.00,VWS V14.01,2013-06-17 21:57:00,
2013-06-17 18:02:00,81.1,77.6,29.90,South,177,21.0,22.0,89,0.00,,---,0.00,VWS V14.01,2013-06-17 22:02:00,
2013-06-17 18:07:00,81.1,77.6,29.90,South,176,21.0,24.0,89,0.00,,---,0.00,VWS V14.01,2013-06-17 22:07:00,
2013-06-17 18:12:00,81.1,77.6,29.90,South,176,23.0,24.0,89,0.00,,---,0.00,VWS V14.01,2013-06-17 22:12:00,
2013-06-17 18:17:00,81.1,77.9,29.91,South,176,23.0,24.0,90,0.00,,---,0.00,VWS V14.01,2013-06-17 22:17:00,
2013-06-17 18:22:00,81.0,77.8,29.91,South,177,19.0,24.0,90,0.00,,---,0.00,VWS V14.01,2013-06-17 22:22:00,
2013-06-17 18:27:00,81.1,77.9,29.91,South,177,24.0,25.0,90,0.00,,---,0.00,VWS V14.01,2013-06-17 22:27:00,
2013-06-17 18:32:00,81.1,77.6,29.91,South,177,24.0,24.0,89,0.00,,---,0.00,VWS V14.01,2013-06-17 22:32:00,
2013-06-17 18:37:00,81.1,77.6,29.91,South,177,16.0,25.0,89,0.00,,---,0.00,VWS V14.01,2013-06-17 22:37:00,
2013-06-17 18:42:00,81.2,77.7,29.91,South,177,21.0,24.0,89,0.00,,---,0.00,VWS V14.01,2013-06-17 22:42:00,
2013-06-17 18:47:00,81.2,77.7,29.91,South,177,19.0,24.0,89,0.00,,---,0.00,VWS V14.01,2013-06-17 22:47:00,
2013-06-17 18:52:00,81.2,77.7,29.91,South,177,23.0,23.0,89,0.00,,---,0.00,VWS V14.01,2013-06-17 22:52:00,
2013-06-17 18:57:00,81.1,77.6,29.91,South,177,20.0,22.0,89,0.00,,---,0.00,VWS V14.01,2013-06-17 22:57:00,
2013-06-17 19:02:00,81.1,77.6,29.91,South,176,20.0,22.0,89,0.00,,---,0.00,VWS V14.01,2013-06-17 23:02:00,
2013-06-17 19:07:00,81.0,77.5,29.91,South,177,21.0,24.0,89,0.00,,---,0.00,VWS V14.01,2013-06-17 23:07:00,
2013-06-17 19:12:00,81.0,77.5,29.91,South,177,19.0,24.0,89,0.00,,---,0.00,VWS V14.01,2013-06-17 23:12:00,
2013-06-17 19:17:00,81.0,77.5,29.91,South,177,16.0,22.0,89,0.00,,---,0.00,VWS V14.01,2013-06-17 23:17:00,
2013-06-17 19:22:00,80.9,77.4,29.91,South,177,21.0,23.0,89,0.00,,---,0.00,VWS V14.01,2013-06-17 23:22:00,
2013-06-17 19:27:00,80.9,77.7,29.91,South,177,21.0,21.0,90,0.00,,---,0.00,VWS V14.01,2013-06-17 23:27:00,
2013-06-17 19:32:00,80.8,77.6,29.91,South,177,19.0,20.0,90,0.00,,---,0.00,VWS V14.01,2013-06-17 23:32:00,
2013-06-17 19:37:00,80.7,77.5,29.91,South,176,18.0,21.0,90,0.00,,---,0.00,VWS V14.01,2013-06-17 23:37:00,
2013-06-17 19:42:00,80.7,77.5,29.91,South,177,17.0,19.0,90,0.00,,---,0.00,VWS V14.01,2013-06-17 23:42:00,
2013-06-17 19:47:00,80.6,77.4,29.91,South,177,21.0,21.0,90,0.00,,---,0.00,VWS V14.01,2013-06-17 23:47:00,
2013-06-17 19:52:00,80.6,77.4,29.91,South,177,21.0,21.0,90,0.00,,---,0.00,VWS V14.01,2013-06-17 23:52:00,
2013-06-17 19:57:00,80.6,77.4,29.91,South,177,19.0,22.0,90,0.00,,---,0.00,VWS V14.01,2013-06-17 23:57:00,
2013-06-17 20:02:00,80.6,77.4,29.91,South,177,21.0,21.0,90,0.00,,---,0.00,VWS V14.01,2013-06-18 00:02:00,
2013-06-17 20:07:00,80.5,77.3,29.91,South,177,15.0,19.0,90,0.00,,---,0.00,VWS V14.01,2013-06-18 00:07:00,
2013-06-17 20:12:00,80.5,77.3,29.91,South,177,12.0,19.0,90,0.00,,---,0.00,VWS V14.01,2013-06-18 00:12:00,
2013-06-17 20:17:00,80.5,77.3,29.92,South,177,12.0,17.0,90,0.00,,---,0.00,VWS V14.01,2013-06-18 00:17:00,
2013-06-17 20:22:00,80.5,77.3,29.92,South,177,15.0,18.0,90,0.00,,---,0.00,VWS V14.01,2013-06-18 00:22:00,
2013-06-17 20:27:00,80.5,77.3,29.92,South,177,9.0,16.0,90,0.00,,---,0.00,VWS V14.01,2013-06-18 00:27:00,
2013-06-17 20:32:00,80.5,77.6,29.92,South,177,18.0,18.0,91,0.00,,---,0.00,VWS V14.01,2013-06-18 00:32:00,
2013-06-17 20:37:00,80.4,77.5,29.92,South,177,16.0,21.0,91,0.00,,---,0.00,VWS V14.01,2013-06-18 00:37:00,
2013-06-17 20:42:00,80.3,77.1,29.92,South,177,10.0,17.0,90,0.00,,---,0.00,VWS V14.01,2013-06-18 00:42:00,
2013-06-17 20:47:00,80.4,77.2,29.92,South,177,10.0,17.0,90,0.00,,---,0.00,VWS V14.01,2013-06-18 00:47:00,
2013-06-17 20:52:00,80.4,77.2,29.92,South,177,16.0,16.0,90,0.00,,---,0.00,VWS V14.01,2013-06-18 00:52:00,
2013-06-17 20:57:00,80.5,77.3,29.92,South,177,17.0,17.0,90,0.00,,---,0.00,VWS V14.01,2013-06-18 00:57:00,
2013-06-17 21:02:00,80.5,77.0,29.93,South,177,19.0,19.0,89,0.00,,---,0.00,VWS V14.01,2013-06-18 01:02:00,
2013-06-17 21:07:00,80.6,77.1,29.93,South,177,15.0,18.0,89,0.00,,---,0.00,VWS V14.01,2013-06-18 01:07:00,
2013-06-17 21:12:00,80.6,77.1,29.93,South,177,18.0,19.0,89,0.00,,---,0.00,VWS V14.01,2013-06-18 01:12:00,
2013-06-17 21:17:00,80.6,77.1,29.93,South,177,13.0,19.0,89,0.00,,---,0.00,VWS V14.01,2013-06-18 01:17:00,
2013-06-17 21:22:00,80.5,77.0,29.93,South,176,18.0,21.0,89,0.00,,---,0.00,VWS V14.01,2013-06-18 01:22:00,
2013-06-17 21:27:00,80.6,77.1,29.93,South,177,17.0,20.0,89,0.00,,---,0.00,VWS V14.01,2013-06-18 01:27:00,
2013-06-17 21:32:00,80.6,77.1,29.94,South,177,16.0,18.0,89,0.00,,---,0.00,VWS V14.01,2013-06-18 01:32:00,
2013-06-17 21:37:00,80.5,77.0,29.94,South,177,19.0,19.0,89,0.00,,---,0.00,VWS V14.01,2013-06-18 01:37:00,
2013-06-17 21:42:00,80.5,77.0,29.94,South,177,13.0,18.0,89,0.00,,---,0.00,VWS V14.01,2013-06-18 01:42:00,
2013-06-17 21:47:00,80.5,77.0,29.94,South,177,15.0,19.0,89,0.00,,---,0.00,VWS V14.01,2013-06-18 01:47:00,
2013-06-17 21:52:00,80.5,77.0,29.94,South,177,19.0,21.0,89,0.00,,---,0.00,VWS V14.01,2013-06-18 01:52:00,
2013-06-17 21:57:00,80.4,77.2,29.94,South,177,18.0,22.0,90,0.00,,---,0.00,VWS V14.01,2013-06-18 01:57:00,
2013-06-17 22:02:00,80.3,77.1,29.94,South,176,17.0,23.0,90,0.00,,---,0.00,VWS V14.01,2013-06-18 02:02:00,
2013-06-17 22:07:00,80.3,77.1,29.94,South,177,20.0,21.0,90,0.00,,---,0.00,VWS V14.01,2013-06-18 02:07:00,
2013-06-17 22:12:00,80.3,77.1,29.94,South,177,15.0,21.0,90,0.00,,---,0.00,VWS V14.01,2013-06-18 02:12:00,
2013-06-17 22:17:00,80.2,77.0,29.95,South,177,18.0,21.0,90,0.00,,---,0.00,VWS V14.01,2013-06-18 02:17:00,
2013-06-17 22:22:00,80.2,77.0,29.95,South,177,16.0,18.0,90,0.00,,---,0.00,VWS V14.01,2013-06-18 02:22:00,
2013-06-17 22:27:00,80.2,77.0,29.95,South,177,18.0,21.0,90,0.00,,---,0.00,VWS V14.01,2013-06-18 02:27:00,
2013-06-17 22:32:00,80.2,77.0,29.96,South,176,19.0,20.0,90,0.00,,---,0.00,VWS V14.01,2013-06-18 02:32:00,
2013-06-17 22:37:00,80.2,77.0,29.96,South,177,13.0,20.0,90,0.00,,---,0.00,VWS V14.01,2013-06-18 02:37:00,
2013-06-17 22:42:00,80.2,77.0,29.96,South,177,9.0,15.0,90,0.00,,---,0.00,VWS V14.01,2013-06-18 02:42:00,
2013-06-17 22:47:00,80.3,76.8,29.96,South,177,9.0,21.0,89,0.00,,---,0.00,VWS V14.01,2013-06-18 02:47:00,
2013-06-17 22:52:00,80.5,77.0,29.96,South,177,11.0,16.0,89,0.00,,---,0.00,VWS V14.01,2013-06-18 02:52:00,
2013-06-17 22:57:00,80.6,77.1,29.96,South,177,12.0,16.0,89,0.00,,---,0.00,VWS V14.01,2013-06-18 02:57:00,
2013-06-17 23:02:00,80.7,76.8,29.97,South,177,15.0,17.0,88,0.00,,---,0.00,VWS V14.01,2013-06-18 03:02:00,
2013-06-17 23:07:00,80.8,76.9,29.97,South,177,11.0,15.0,88,0.00,,---,0.00,VWS V14.01,2013-06-18 03:07:00,
2013-06-17 23:12:00,80.9,77.0,29.97,South,177,14.0,18.0,88,0.00,,---,0.00,VWS V14.01,2013-06-18 03:12:00,
2013-06-17 23:17:00,80.9,77.0,29.96,South,177,16.0,16.0,88,0.00,,---,0.00,VWS V14.01,2013-06-18 03:17:00,
2013-06-17 23:22:00,80.9,77.0,29.96,South,177,14.0,18.0,88,0.00,,---,0.00,VWS V14.01,2013-06-18 03:22:00,
2013-06-17 23:27:00,80.8,77.3,29.96,South,177,15.0,15.0,89,0.00,,---,0.00,VWS V14.01,2013-06-18 03:27:00,
2013-06-17 23:32:00,80.7,77.2,29.96,South,177,10.0,16.0,89,0.00,,---,0.00,VWS V14.01,2013-06-18 03:32:00,
2013-06-17 23:37:00,80.4,76.9,29.96,South,177,12.0,12.0,89,0.00,,---,0.00,VWS V14.01,2013-06-18 03:37:00,
2013-06-17 23:42:00,80.4,76.9,29.96,South,177,8.0,10.0,89,0.00,,---,0.00,VWS V14.01,2013-06-18 03:42:00,
2013-06-17 23:47:00,80.5,77.0,29.96,South,177,9.0,10.0,89,0.00,,---,0.00,VWS V14.01,2013-06-18 03:47:00,
2013-06-17 23:52:00,80.7,76.8,29.96,South,177,9.0,9.0,88,0.00,,---,0.00,VWS V14.01,2013-06-18 03:52:00,
2013-06-17 23:57:00,81.0,76.8,29.96,South,177,17.0,22.0,87,0.00,,---,0.00,VWS V14.01,2013-06-18 03:57:00,